Regional Weather Roundup
Issued by NWS

Home | Current Version | Previous Version | Text Only | Print | Product List | Glossary On
Versions: 1 2 3 4 5 6 7 8 9 10 11 12 13 14 15 16 17 18 19 20 21 22 23 24 25 26 27 28 29 30 31 32 33 34 35 36 37 38 39 40 41 42 43 44 45 46 47 48 49 50
000
ASUS45 KBOI 161410
RWRID
WEATHER ROUNDUP FOR IDAHO
NATIONAL WEATHER SERVICE BOISE ID
800 AM MDT TUE SEP 16 2014

NOTE: "FAIR" INDICATES FEW OR NO CLOUDS BELOW 12000 FEET
WITH NO SIGNIFICANT WEATHER AND/OR OBSTRUCTIONS TO VISIBILITY

IDZ012-014-161500-
SOUTHWEST IDAHO


CITY           SKY/WX    TMP DP  RH WIND       PRES   REMARKS
BOISE          CLOUDY    70  52  52 SE7       29.96F
CALDWELL       CLOUDY    63  50  63 SE10      29.95F
MOUNTAIN HOME  MOCLDY    65  39  39 S8        29.99R
$$

IDZ016-017-161500-
SOUTHCENTRAL IDAHO


CITY           SKY/WX    TMP DP  RH WIND       PRES   REMARKS
BURLEY         MOCLDY    52  44  74 SW3       30.07R
JEROME         MOCLDY    63  36  36 SE8       30.06F
TWIN FALLS     MOCLDY    66  37  34 E10       30.05S
$$

IDZ019>023-161500-
SOUTHEAST IDAHO


CITY           SKY/WX    TMP DP  RH WIND       PRES   REMARKS
IDAHO FALLS    MOCLDY    51  40  65 CALM      30.14S
POCATELLO      CLEAR     50  40  68 E3        30.11S
REXBURG        CLOUDY    50  38  63 NE3       30.15S
$$

IDZ006-010-011-018-031-032-161500-
CENTRAL IDAHO MOUNTAINS


CITY           SKY/WX    TMP DP  RH WIND       PRES   REMARKS
MCCALL         CLOUDY    51  40  65 E3        30.13R
HAILEY         MOCLDY    59  43  55 NW12      30.17S
STANLEY          N/A     50  36  58 VRB3      30.28F
SALMON         PTCLDY    43  37  81 NW3       30.13R
CHALLIS        MOCLDY    54  36  50 W5        30.17R
$$

IDZ002-004-006-007-026-161500-
NORTHERN IDAHO


CITY           SKY/WX    TMP DP  RH WIND       PRES   REMARKS
LEWISTON       PTCLDY    58  39  49 SE5       29.87S
LOWELL           N/A     48  45  89 NW5       30.00R
COEUR D`ALENE  PTCLDY    55  43  62 NE13      29.93S
MULLAN PASS    PTCLDY    61  26  26 SE6       30.11S
$$


USA.gov is the U.S. government's official web portal to all federal, state and local government web resources and services.